{"data":{"norad_id":69262,"intl_designator":"2026-117AA","name":"STARLINK-37503","alt_names":[],"object_type":"PAYLOAD","status":"ACTIVE","operator":null,"country":"US","launch_date":"2026-05-29","launch_site_code":"AFETR","launch_vehicle":null,"mission":null,"orbit_class":"UNKNOWN","rcs_meters":null,"size_class":null,"mass_kg":null,"dimensions":null,"purposes":["comms"],"wikipedia_slug":null,"has_3d_model":false,"image_url":null,"decayed_at":null,"tle_current":{"epoch":"2026-09-19T23:22:41.958336Z","epoch_age_seconds":72361,"freshness":"FRESH","line1":"1 69262U 26117AA  26262.97409674  .00018664  00000+0  56138-3 0  9996","line2":"2 69262  53.1581 156.3829 0001677  89.3809 270.7385 15.34442178 17584","mean_motion":15.34442178,"eccentricity":0.0001677,"inclination_deg":53.1581,"raan_deg":156.3829,"arg_perigee_deg":89.3809,"mean_anomaly_deg":270.7385,"bstar":0.00056138,"rev_number":1758,"period_min":93.845178439823,"perigee_km":461.4306932885,"apogee_km":463.72506905965,"semimajor_km":6840.7148811741,"source":"CELESTRAK","updated_at":"2026-09-20T09:00:44.152620Z"}}}